User: anonymous   Login
Location: South Tamworth Observatory
(43.8246°N, 71.3026°W)
Time: 00:16:41
(UTC-04:00)
Language:

Cosmos 1844 - Orbit

View from above orbital plane
View from above orbital plane
View from above satellite
View from above satellite

Ground track
Ground track

The orbit data is extracted from the following two-line orbital elements,

1 17973U 87041A   15213.51207378  .00000336  00000-0  20140-3 0  9994
2 17973 070.8982 278.6177 0029173 073.6286 286.8040 14.13993230456216
Epoch (UTC): 01 August 2015 12:17:23
Eccentricity: 0.0029173
inclination: 70.8982°
perigee height: 824 km
apogee height: 867 km
right ascension of ascending node: 278.6177°
argument of perigee: 73.6286°
revolutions per day: 14.13993230
mean anomaly at epoch: 286.8040°
orbit number at epoch: 45621

The dashed part of the orbit path shows where the satellite is in the earth's shadow,  

DLR